SCP
2 2 1 1 1 1 1 1 1 1 1 1 0 0 1 1 1 1 1 2 1 1 1 1 1 1 1 1 0 0 0 0 0 0 0 0 0 0 1 1 1 0 0
2 2 1 1 1 1 1 1 1 1 1 1 1 0 1 1 1 1 2 2 2 1 1 1 1 1 1 1 1 1 1 1 0 0 0 0 0 1 1 1 1 1 0
2 2 2 1 1 1 2 2 1 1 1 1 1 1 1 1 1 1 1 2 2 1 1 1 1 1 1 1 1 1 1 1 1 1 1 1 1 1 1 1 1 1 1
2 2 1 1 1 1 1 2 2 1 1 1 1 1 1 1 1 1 1 1 2 2 2 2 2 2 2 2 2 2 2 2 1 1 1 1 1 1 1 1 1 1 1
2 2 1 1 1 1 1 1 2 2 2 1 1 1 1 1 1 1 1 1 1 2 2 2 2 2 2 2 2 2 2 2 2 2 1 1 1 1 1 1 1 1 1
4 3 2 1 1 1 1 2 2 2 2 1 1 1 1 1 1 1 1 1 1 1 2 1 2 2 2 2 2 2 2 2 2 2 1 1 1 1 1 1 1 1 1
6 5 4 2 2 1 2 2 2 2 1 1 1 1 1 1 1 1 1 1 1 1 1 1 1 2 2 2 2 2 1 1 1 1 1 1 1 1 1 1 1 1 1
8 7 5 3 2 1 2 2 2 1 1 1 1 1 1 1 1 1 1 2 2 1 1 1 1 2 2 2 2 2 1 1 1 1 1 1 1 1 1 1 1 1 1
7 7 6 4 3 3 3 2 2 2 1 1 1 1 1 1 1 1 1 2 2 2 1 1 2 2 2 2 2 2 2 2 2 2 2 1 1 1 1 1 1 1 1
5 6 6 4 4 4 4 3 3 2 2 1 1 1 1 1 1 1 1 2 2 2 2 2 2 2 2 2 2 2 2 2 2 2 2 2 1 1 1 1 1 1 1
4 5 6 5 4 4 4 3 3 3 2 2 1 2 2 1 1 1 1 2 2 2 2 2 2 2 2 2 2 2 2 2 2 2 2 2 2 2 1 1 1 1 1
4 5 5 4 4 3 3 2 2 2 2 2 2 2 2 2 1 1 1 1 1 2 2 3 2 2 3 3 2 2 1 1 1 2 2 2 2 2 2 1 1 1 1
5 5 4 4 3 3 2 2 2 2 2 2 2 2 2 2 2 1 1 1 1 1 2 2 2 2 2 2 2 1 1 1 1 1 1 1 1 1 2 1 1 1 1
6 5 5 4 3 3 2 2 3 3 3 3 2 2 2 2 2 2 1 1 1 1 1 2 2 2 2 2 1 1 1 0 0 0 0 1 1 1 1 1 1 1 1
6 5 4 4 4 3 3 3 3 3 3 3 2 2 2 2 2 2 2 2 1 1 1 1 2 1 1 1 1 1 1 1 0 0 0 0 0 0 0 1 1 1 1
6 5 4 4 4 4 4 4 3 3 3 2 2 2 2 2 2 2 2 2 2 1 1 2 2 1 1 1 1 1 1 1 1 0 0 0 0 0 0 0 0 1 1
6 5 5 5 5 5 4 4 3 3 2 2 2 2 2 2 2 2 2 2 2 2 2 2 2 2 2 2 2 2 2 1 1 1 0 0 0 0 0 0 0 0 0
5 6 6 5 5 4 4 4 3 2 2 2 2 2 2 2 3 3 3 2 2 2 2 2 2 2 2 3 3 3 2 2 1 1 1 0 0 0 0 0 0 0 0
6 6 6 6 5 4 4 3 3 3 2 2 2 3 3 4 4 3 3 3 3 2 2 2 3 3 3 4 4 4 3 3 2 1 1 0 0 0 0 0 0 0 0
7 7 6 5 5 4 4 4 4 3 3 3 3 3 4 4 4 4 3 3 3 3 3 3 3 4 4 4 5 5 4 4 3 2 1 1 1 0 0 0 0 0 0
7 7 5 5 5 5 5 4 4 4 3 3 3 3 3 3 3 3 3 3 3 3 3 3 3 3 4 4 5 5 5 4 4 3 3 2 2 1 1 1 0 0 0
8 6 5 5 5 5 4 3 3 3 4 4 4 3 3 3 3 3 3 2 2 2 2 2 2 3 3 4 5 5 5 5 5 5 4 4 3 3 2 1 1 0 0
7 6 5 5 5 5 3 2 2 3 4 4 4 4 3 3 3 3 2 1 1 1 1 2 2 2 3 4 5 5 5 6 6 6 5 4 4 4 3 2 1 1 0
6 6 5 6 6 5 3 2 2 3 4 5 5 4 4 4 3 2 2 1 1 1 1 1 1 2 2 3 4 4 5 5 6 6 6 4 4 4 4 3 2 1 0
6 6 6 6 6 5 4 3 2 3 4 4 4 4 4 3 2 1 2 2 2 2 1 1 1 1 1 1 2 2 3 4 4 5 5 4 4 4 4 3 2 1 0
7 7 7 6 6 6 4 3 3 4 4 4 4 4 3 2 1 1 2 3 3 2 2 1 0 0 0 0 0 1 1 2 3 4 5 4 4 4 4 3 2 1 0
Wind_Speed
1 1 0 1 0 1 2 0 0 1 1 1 1 1 1 2 5 6 6 10 10 9 8 7 7 6 6 7 7 7 7 6 6 5 5 5 6 6 5 5 6 5 6
2 1 0 1 1 1 1 0 0 1 0 1 1 2 2 2 3 5 6 7 9 9 8 8 7 6 7 7 7 7 7 7 6 5 5 5 5 5 5 5 5 5 5
2 0 0 0 1 1 0 0 0 0 1 1 0 1 1 1 1 3 5 5 6 7 8 7 7 6 6 6 6 7 6 5 5 5 5 3 3 4 4 4 5 4 4
1 0 0 0 0 1 0 0 0 0 0 0 0 0 1 1 1 1 2 4 5 5 6 7 7 6 6 6 6 6 6 5 5 5 5 4 4 3 4 4 4 4 4
2 1 1 0 1 1 0 1 1 0 0 0 0 1 1 1 1 1 0 1 3 4 4 6 6 4 4 4 4 5 5 5 5 5 5 5 5 4 3 3 3 4 4
2 1 1 1 1 0 0 1 1 0 0 1 1 0 0 0 1 1 1 1 1 3 3 4 4 3 3 3 2 3 4 4 4 5 5 5 5 4 4 4 3 3 3
1 1 1 1 0 0 1 1 0 0 1 0 0 0 0 1 1 1 1 1 1 2 2 3 3 2 3 4 3 2 2 3 3 3 3 3 3 3 4 4 4 3 2
1 1 1 1 1 1 0 1 0 1 1 1 1 0 0 0 1 0 1 1 1 1 2 3 3 3 2 3 3 3 3 3 3 4 3 2 2 2 3 4 4 4 3
1 1 0 1 1 1 1 2 2 2 2 2 1 1 1 1 0 0 1 1 2 1 1 2 3 3 3 3 3 3 4 4 4 5 4 4 4 3 2 2 2 2 3
1 1 1 1 1 1 1 2 2 2 2 2 2 1 1 1 1 1 0 1 2 2 1 1 2 3 3 3 4 6 6 5 5 5 4 4 4 4 4 4 4 3 3
2 2 1 1 1 1 1 2 1 1 1 2 1 1 1 1 2 2 1 0 1 1 1 1 2 2 3 3 3 6 8 6 5 5 5 5 5 5 6 6 5 5 5
1 1 1 0 0 1 1 1 1 1 1 2 2 1 1 1 1 1 2 2 1 0 1 1 2 2 3 3 5 7 8 8 7 6 6 5 5 5 5 5 5 5 5
0 0 0 1 0 1 1 1 1 1 1 1 2 2 2 1 1 1 2 1 1 0 1 1 1 2 3 4 4 8 8 8 8 7 6 5 5 6 6 6 6 6 5
0 1 1 1 0 1 1 1 1 1 1 1 1 2 2 1 0 1 1 2 1 1 1 1 2 2 2 3 5 6 5 8 8 7 7 6 7 7 7 7 7 7 7
1 2 2 1 1 1 1 1 1 2 1 1 2 1 1 1 0 0 1 1 2 1 1 1 1 2 2 4 5 4 5 8 8 8 7 7 6 6 6 6 7 6 6
2 3 2 2 2 2 2 1 1 2 1 1 1 1 1 1 1 1 1 1 1 2 1 1 1 2 3 5 6 4 5 9 8 7 7 7 7 6 6 6 6 6 6
2 2 2 2 2 2 2 2 2 2 2 2 2 2 2 2 1 1 0 0 1 2 2 2 2 2 4 4 4 4 4 4 4 7 7 7 6 6 6 6 6 6 6
2 2 2 2 2 2 2 2 2 2 2 2 2 2 2 2 2 1 1 1 1 2 3 3 2 2 2 3 4 4 4 4 4 7 8 7 6 6 6 6 6 6 6
3 2 2 2 2 2 2 2 2 2 2 2 2 2 2 2 2 1 1 1 1 2 2 3 3 2 2 2 3 3 3 3 4 6 7 6 6 6 6 6 6 5 5
3 2 2 2 2 2 2 2 1 1 1 1 2 2 2 2 2 2 2 2 2 2 2 3 3 2 2 2 2 2 2 1 2 3 4 5 5 6 6 6 6 5 4
3 2 2 2 1 1 1 2 1 1 1 2 2 2 3 5 6 3 2 2 2 1 2 2 3 2 2 2 2 1 2 2 1 2 2 2 3 2 3 4 5 5 5
2 2 2 2 1 1 3 3 2 1 2 2 2 2 3 4 5 5 6 5 3 2 1 2 2 2 2 2 1 1 2 2 1 1 2 2 3 2 2 2 5 7 6
3 2 2 2 2 2 4 4 3 1 2 2 2 2 2 3 3 3 4 5 4 5 3 1 2 1 2 2 2 2 2 1 1 2 2 1 2 2 2 4 9 8 7
3 2 2 3 2 2 3 3 3 1 1 2 2 2 3 3 3 2 2 3 3 4 3 2 2 1 1 1 1 2 2 1 1 1 2 1 1 2 2 3 8 9 8
3 3 3 3 3 2 1 2 2 1 1 2 2 3 3 3 4 3 2 2 2 2 4 6 4 3 4 3 2 0 1 2 1 1 2 2 1 1 1 3 5 9 9
4 4 3 3 3 3 2 1 1 1 1 2 2 3 4 3 3 3 1 1 1 1 2 2 2 1 2 2 2 1 1 1 1 1 1 1 1 1 1 2 3 5 5
Wind_Direction
85 75 25 320 234 157 150 157 45 84 23 358 16 53 57 96 117 125 134 148 152 157 162 169 179 192 197 203 207 209 208 205 200 197 203 209 213 214 215 216 216 216 216
90 77 7 327 329 24 87 119 90 74 31 33 23 43 38 43 104 128 139 158 162 165 168 174 181 191 199 203 206 209 208 207 202 199 200 207 211 213 218 217 214 217 219
89 106 290 246 340 351 63 135 341 271 200 150 118 94 79 60 100 133 150 161 169 175 176 178 183 191 198 202 202 201 197 193 192 189 185 190 198 198 205 215 216 212 213
140 296 302 125 307 278 181 136 233 290 41 96 143 179 161 143 167 166 160 167 169 174 182 184 184 193 201 200 194 191 190 187 182 184 179 187 193 190 196 205 208 201 201
173 195 226 117 283 313 335 273 120 104 112 345 229 198 201 138 171 173 153 156 155 150 157 169 173 173 182 190 192 191 189 183 178 183 186 198 203 199 199 197 202 204 207
176 199 209 204 238 335 335 5 22 8 249 234 278 34 41 152 142 129 155 119 124 131 135 147 166 157 144 129 136 158 168 175 178 185 190 199 201 198 199 200 199 199 202
173 196 287 194 223 186 223 228 199 309 270 208 22 340 352 33 104 124 119 109 103 100 114 119 133 144 146 130 113 123 146 162 156 164 174 186 188 185 200 208 206 202 211
224 208 206 248 212 185 203 247 201 223 262 221 183 189 249 326 347 138 143 156 119 97 110 121 132 137 139 145 121 125 127 139 141 137 129 138 151 168 198 214 211 210 206
202 304 155 263 283 212 208 218 230 234 242 258 226 189 206 201 133 25 57 99 116 114 121 124 114 113 115 109 122 120 125 115 117 120 114 101 96 97 108 150 177 152 144
236 208 212 224 252 258 239 241 215 248 235 254 261 229 215 195 180 176 353 117 131 125 114 119 110 105 103 100 96 102 119 116 114 113 108 104 100 96 96 94 99 113 131
229 236 194 213 236 259 247 268 276 263 255 264 268 256 243 230 217 175 197 197 98 112 145 123 106 109 109 107 103 102 109 114 115 113 107 100 98 95 94 94 90 86 90
250 284 212 135 297 292 282 279 280 265 273 289 299 298 261 238 230 187 188 199 172 118 74 90 110 115 113 106 106 106 112 113 113 110 105 98 92 90 92 92 90 87 86
218 315 338 108 305 307 306 302 275 281 289 281 270 286 290 272 246 186 172 188 172 159 80 79 90 101 112 114 115 112 107 111 109 105 107 105 97 89 84 82 80 76 75
197 103 78 97 44 331 336 353 325 310 338 309 295 290 300 308 318 186 181 167 177 192 114 122 82 81 95 109 109 118 113 110 109 106 102 100 96 92 92 87 83 78 75
83 92 85 85 61 38 11 11 6 2 9 354 344 343 338 340 311 234 152 182 180 184 177 153 131 107 112 108 114 113 115 111 109 105 105 102 100 97 94 91 88 83 79
66 89 83 79 70 52 29 19 35 22 20 18 19 22 15 356 3 31 165 218 178 157 154 145 143 139 125 118 120 119 117 120 115 117 114 110 106 102 96 93 90 86 85
81 85 77 73 73 67 50 37 42 41 30 31 22 36 35 30 13 353 324 163 110 117 136 124 109 116 110 119 131 134 133 135 133 130 126 122 119 114 107 102 96 91 88
101 91 82 70 64 62 53 46 39 41 37 39 32 33 26 33 30 6 2 31 96 120 134 133 128 128 126 142 143 146 138 136 132 134 131 129 127 124 119 112 104 97 91
112 107 98 88 74 59 57 44 42 56 51 47 44 42 34 39 25 28 36 43 63 96 125 137 137 134 134 136 124 118 113 117 133 135 134 133 135 131 127 124 118 111 104
124 115 108 99 92 64 45 34 30 78 94 77 61 51 45 50 39 34 46 57 76 94 112 126 134 136 125 130 130 136 132 143 137 146 134 135 142 139 136 135 134 133 129
142 129 121 112 110 102 36 12 336 84 87 82 70 70 67 69 61 54 58 48 77 98 116 127 135 133 133 143 162 175 153 147 141 145 135 146 149 149 155 154 149 149 148
130 128 123 112 94 65 16 23 32 30 67 78 79 84 91 75 76 77 75 63 57 75 91 124 138 148 156 164 145 164 151 170 176 166 158 176 165 160 161 159 156 156 157
144 139 132 117 108 59 28 27 26 44 64 59 63 64 66 60 66 76 77 69 54 51 53 78 121 148 175 166 165 180 178 183 178 184 171 183 168 159 168 159 165 170 172
153 155 145 140 134 88 39 29 12 104 100 84 72 68 69 62 49 51 86 81 65 43 29 52 65 60 95 119 154 189 182 154 154 183 156 189 192 180 167 164 178 180 186
167 166 154 149 142 115 52 30 3 151 123 105 92 77 81 81 55 48 84 88 90 93 66 66 76 93 86 85 97 152 199 182 211 219 182 194 202 181 179 184 189 192 196
174 171 164 160 153 141 125 64 3 204 141 128 113 101 84 86 89 52 85 109 106 97 110 113 90 124 153 157 178 209 230 235 226 192 174 198 202 175 215 204 180 186 206